Regional Weather Roundup
Issued by NWS San Diego, CA

Home | Current Version | Previous Version | Text Only | Print | Product List | Glossary On
Versions: 1 2 3 4 5 6 7 8 9 10 11 12 13 14 15 16 17 18 19 20 21 22 23 24 25 26 27 28 29 30 31 32 33 34 35 36 37 38 39 40 41 42 43 44 45 46 47 48 49 50
174
ASUS46 KSGX 240711
RWRSGX

SAN DIEGO HOURLY WEATHER ROUNDUP
NATIONAL WEATHER SERVICE SAN DIEGO CA
1200 AM PDT SUN JUL 24 2016

NOTE: "FAIR" INDICATES FEW OR NO CLOUDS BELOW 12,000 FEET WITH NO
SIGNIFICANT WEATHER AND/OR OBSTRUCTIONS TO VISIBILITY.

CAZ042-043-060-061-PZZ750-775-240800-

GREATER SAN DIEGO AREA

CITY           SKY/WX    TMP DP  RH WIND       PRES   REMARKS
LINDBERGH FLD  PTCLDY    68  65  90 SW7       29.85R
POINT LOMA       N/A     67  64  91 S6          N/A
NATIONAL CITY    N/A     71  67  88 SW3       29.84R
CHULA VISTA      N/A     69  67  91 NW2       29.76R
IMPERIAL BEACH PTCLDY    68  62  81 S3        29.84R
BROWN FIELD    PTCLDY    70  64  81 W3        29.84R
MIRAMAR MCAS   PTCLDY    67  59  75 W6        29.84R
MONTGOMERY FLD CLEAR     72  63  73 SW7       29.84S

$$

NORTH SAN DIEGO COUNTY

CITY           SKY/WX    TMP DP  RH WIND       PRES   REMARKS
CAMP PENDLETON CLEAR     66  63  90 MISG      29.82S FOG
OCEANSIDE AP   CLEAR     67  61  81 NW5       29.81S
OCEANSIDE HBR    N/A     71  69  92 CALM      29.84F
VISTA            N/A     69  64  83 CALM      29.79S
CARLSBAD       CLEAR     71  67  87 S3        29.82S
DEL MAR          N/A     69  68  96 W1        29.85S
LA JOLLA SCRIP   N/A     70  67  90 S1        29.82S
FALLBROOK        N/A     71  67  87 CALM      29.80F
ESCONDIDO        N/A     75  65  70 CALM      29.83S
SAN MARCOS       N/A     72  61  68 CALM      29.79F
POWAY            N/A     71  59  66 CALM      29.82S

$$

EAST SAN DIEGO COUNTY

CITY           SKY/WX    TMP DP  RH WIND       PRES   REMARKS
RAMONA         CLEAR     68  55  63 CALM      29.87S
SANTEE LAKES     N/A     71  60  68 CALM      29.82R
LA MESA          N/A     71  63  75 CALM      29.76R
JAMUL            N/A     69  62  77 CALM      29.81S
DESCANSO N       N/A     74  38  28 E3        29.67S
CAMPO            N/A     70  42  36 NE5       29.92S

$$

ORANGE COUNTY AND THE LOS ANGELES BASIN

CITY           SKY/WX    TMP DP  RH WIND       PRES   REMARKS
JOHN WAYNE AP  CLEAR     73  65  75 CALM      29.82F
LAGUNA BEACH     N/A    N/A N/A N/A CALM      29.77F
LAKE FOREST FR   N/A     74  48  40 CALM      29.69S
HUNTINGTON BCH   N/A     67  65  92 CALM      29.85R
LOS ALAMITOS   FAIR      69  65  87 W2        29.83S
FULLERTON      CLEAR     73  65  75 CALM      29.82S
LONG BEACH     CLEAR     71  66  84 CALM      29.83S
L.A. AP        MOCLDY    71  64  78 VRB5      29.83F
L.A. DOWNTOWN  CLEAR     73  65  75 CALM      29.83S

$$

THE INLAND EMPIRE

CITY           SKY/WX    TMP DP  RH WIND       PRES   REMARKS
CHINO          CLEAR     70  62  76 CALM      29.87S
ONTARIO        CLEAR     77  58  51 CALM      29.86S
SAN BERNARDINO FAIR      81  57  44 CALM      29.88F
RIVERSIDE AP   CLEAR     79  58  48 CALM      29.86F
MORENO VALLEY    N/A     76  62  61 CALM      28.02F
MARCH ARB      CLEAR     75  58  56 NW3       29.89S
HORSETHIEF CYN   N/A     75  56  51 NW2       29.84S
PERRIS           N/A     78  50  37 CALM      29.88F
HEMET EAST       N/A     75  54  48 CALM      29.71S
FRENCH VALLEY  FAIR      73  50  43 CALM      29.89S
TEMECULA         N/A     75  59  55 CALM      29.84F

$$

SAN BERNARDINO AND RIVERSIDE COUNTY MOUNTAINS

CITY           SKY/WX    TMP DP  RH WIND       PRES   REMARKS
BIG BEAR AP    CLEAR     63  34  34 CALM      30.27S
PINE COVE        N/A     74  41  30 CALM      29.77S

$$

SOUTHERN DESERT INCLUDING THE COACHELLA VALLEY

CITY           SKY/WX    TMP DP  RH WIND       PRES   REMARKS
PALM SPRINGS   CLEAR     95  32  11 CALM      29.77R
THOUSAND PALMS   N/A     94  53  24 NW1       29.73R
PALM DESERT      N/A     95  56  26 CALM      26.22S
THERMAL        CLEAR     91  68  46 E3        29.70R HX  95
BLYTHE         PTCLDY    94  66  39 S16       29.73R HX  97
IMPERIAL AP    PTCLDY    91  74  57 SE13      29.69R HX 100
EL CENTRO NAS  PTCLDY    90  70  51 SE8       29.71R HX  95
YUMA AZ        PTCLDY    89  67  47 S13       29.73R
MEXICALI       PTCLDY    86  72  62 SE3       29.73R

$$

UPPER DESERT

CITY           SKY/WX    TMP DP  RH WIND       PRES   REMARKS
VICTORVILLE AP CLEAR     79  41  25 S9        29.95R
HESPERIA         N/A     80  50  35 NW2       29.86S
PALMDALE       CLEAR     82  33  17 W5        29.92S
LANCASTER      CLEAR     83  18   9 W17       29.90S
EDWARDS AFB    CLEAR     78  32  18 SW13      29.86S
DAGGETT        CLEAR     90  34  13 W18       29.83R
29 PALMS N     CLEAR     92  38  15 CALM      29.91R
NEEDLES        CLEAR    103  52  18 SW13      29.73R HX 100

$$

REGIONAL REPORTS

CITY           SKY/WX    TMP DP  RH WIND       PRES   REMARKS
SANTA BARBARA  CLEAR     64  62  93 CALM      29.83S
SANDBERG       CLEAR     79   9   7 NW10      30.10F
LAS VEGAS NV   CLEAR     99  43  14 S10       29.76S HX  95
PHOENIX AZ     PTCLDY    99  59  26 W15       29.75S HX  99
TIJUANA        PTCLDY    72  61  68 W6        29.85S
ENSENADA NW      N/A     68  32  26 W3        29.81S

$$

OFFSHORE ISLANDS

CITY           SKY/WX    TMP DP  RH WIND       PRES   REMARKS
CATALINA ARPT  CLEAR     76  39  26 S7        29.88S
SAN NICOLAS IS CLOUDY    66  32  28 N3        29.82S FOG

$$

MARINE AND OFFSHORE BUOY REPORTS

STATION/POSITION SKY/WX   TEMP    WIND        PRES    SWELL
                          AIR SEA DIR/SP/G            HT/PER/DIR
                          (F)     (DEG/KT/KT) (MB)    (FT/S/D)
TANNER BANKS               62 63  320/ 10/ 12 1009.1F   7/320/ 9
S CLEMENTE BASIN           68 69  140/  6/ 10 1009.6R   5/280/ 8
SAN NICOLAS IS.               61                N/A     3/180/14
SO. S. ROSA ISLA           60 61  320/ 14/ 16 1009.7F   8/310/ 9
W. S. BARBARA CH           57 54  330/ 10/ 12 1009.8R   7/290/ 9
M. S. BARBARA CH                  230/  2/  4 1010.5R
S. MONICA BASIN            70 72  110/ 10/ 12 1009.7F   3/150/15
S PEDRO CHANNEL               72                N/A     2/180/13
OCEANSIDE OFFSHR              75                N/A     3/190/14
TORREY PINES OTR              73                N/A     2/200/14
LA JOLLA 1                 72 76  240/  3/  4 1009.9S
SAN DIEGO BAY                 77              1010.3R
POINT LOMA SOUTH              72                N/A     2/190/14

$$





USA.gov is the U.S. government's official web portal to all federal, state and local government web resources and services.